GW2644 Weather Reports


Display with metric or nautical units.
time (UTC)temp
F
wind
direction
speed
MPH
gust
MPH
rain 1hr
in
rain 24hr
in
rain mn
in
humidity
%
barometer
mb
20260905014528 78 120 0.0 1.0 0.00 0.00 0.00 65 1015.9
20260905014024 78 243 0.0 2.0 0.00 0.00 0.00 64 1016.0
20260905013520 79 215 0.0 2.0 0.00 0.00 0.00 61 1015.8
20260905013015 80 255 0.0 2.0 0.00 0.00 0.00 61 1016.1
20260905012510 80 209 0.0 2.0 0.00 0.00 0.00 60 1016.1
20260905012007 80 180 0.0 2.0 0.00 0.00 0.00 61 1015.9
20260905011503 80 109 0.0 2.0 0.00 0.00 0.00 59 1016.2
20260905010958 80 203 0.0 2.0 0.00 0.00 0.00 58 1016.1
20260905010457 80 206 2.0 4.0 0.00 0.00 0.00 60 1016.1
20260905005954 80 229 4.0 4.0 0.00 0.00 0.00 58 1016.0
20260905005449 80 240 0.0 3.0 0.00 0.00 0.00 57 1016.2
20260905004944 80 186 0.0 2.0 0.00 0.00 0.00 56 1016.2
20260905004439 79 270 0.0 2.0 0.00 0.00 0.00 55 1016.3
20260905003934 80 203 2.0 3.0 0.00 0.00 0.00 55 1016.2
20260905003430 80 270 1.0 2.0 0.00 0.00 0.00 57 1016.3
20260905002925 80 257 0.0 2.0 0.00 0.00 0.00 55 1016.4
20260905002420 80 234 0.0 5.0 0.00 0.00 0.00 56 1016.4
20260905001919 78 180 0.0 4.0 0.00 0.00 0.00 59 1016.2
20260905001415 79 0 0.0 2.0 0.00 0.00 0.00 58 1016.2
20260905000909 79 270 2.0 4.0 0.00 0.00 0.00 57 1016.3
20260905000405 79 0 1.0 3.0 0.00 0.00 0.00 57 1016.1
20260904235900 79 249 0.0 4.0 0.00 0.00 0.00 57 1016.3
20260904235355 78 280 0.0 3.0 0.00 0.00 0.00 57 1016.2
20260904234850 79 209 2.0 5.0 0.00 0.00 0.00 57 1016.4
20260904234345 80 266 2.0 3.0 0.00 0.00 0.00 56 1016.3
20260904233841 80 225 2.0 3.0 0.00 0.00 0.00 55 1016.4
20260904233336 79 211 3.0 3.0 0.00 0.00 0.00 56 1016.3
20260904232833 80 83 0.0 3.0 0.00 0.00 0.00 55 1016.2
20260904232329 79 297 0.0 3.0 0.00 0.00 0.00 55 1016.4
20260904231824 79 105 0.0 2.0 0.00 0.00 0.00 55 1016.2
20260904231319 79 250 0.0 4.0 0.00 0.00 0.00 55 1016.2
20260904230815 79 270 0.0 6.0 0.00 0.00 0.00 58 1016.3
20260904230313 79 236 3.0 7.0 0.00 0.00 0.00 58 1016.3
20260904225808 80 247 2.0 4.0 0.00 0.00 0.00 57 1016.3
20260904225307 80 266 0.0 5.0 0.00 0.00 0.00 58 1016.5
20260904224806 80 161 4.0 4.0 0.00 0.00 0.00 56 1016.5
20260904224302 79 212 0.0 3.0 0.00 0.00 0.00 58 1016.4
20260904223801 79 292 0.0 5.0 0.00 0.00 0.00 59 1016.3
20260904223255 83 218 3.0 4.0 0.00 0.00 0.00 53 1016.5
20260904222752 81 270 0.0 3.0 0.00 0.00 0.00 56 1016.5
20260904222246 80 20 0.0 2.0 0.00 0.00 0.00 56 1016.3
20260904221741 79 270 2.0 4.0 0.00 0.00 0.00 59 1016.6
20260904221236 80 192 2.0 5.0 0.00 0.00 0.00 58 1016.4
20260904220731 79 209 0.0 2.0 0.00 0.00 0.00 59 1016.5
20260904220226 81 270 1.0 4.0 0.00 0.00 0.00 56 1016.7
20260904215726 79 117 2.0 2.0 0.00 0.00 0.00 58 1016.5
20260904215221 78 240 1.0 3.0 0.00 0.00 0.00 60 1016.4
20260904214716 79 212 0.0 4.0 0.00 0.00 0.00 60 1016.6
20260904214212 78 202 5.0 7.0 0.00 0.00 0.00 60 1016.5
20260904213710 79 126 1.0 2.0 0.00 0.00 0.00 58 1016.6
20260904213206 79 259 2.0 3.0 0.00 0.00 0.00 58 1016.7
20260904212701 80 214 0.0 3.0 0.00 0.00 0.00 58 1016.6
20260904212156 79 277 0.0 6.0 0.00 0.00 0.00 59 1016.7
20260904211655 81 90 0.0 4.0 0.00 0.00 0.00 56 1016.6
20260904211150 80 270 0.0 3.0 0.00 0.00 0.00 56 1016.6
20260904210645 81 238 0.0 3.0 0.00 0.00 0.00 57 1016.5
20260904210141 80 219 3.0 4.0 0.00 0.00 0.00 57 1016.8
20260904205636 79 248 2.0 5.0 0.00 0.00 0.00 58 1016.5
20260904205133 79 246 3.0 4.0 0.00 0.00 0.00 58 1016.8
20260904204629 80 270 1.0 3.0 0.00 0.00 0.00 55 1016.7
20260904204125 81 236 2.0 4.0 0.00 0.00 0.00 56 1016.8
20260904203620 80 192 0.0 2.0 0.00 0.00 0.00 55 1016.9
20260904203117 81 216 2.0 4.0 0.00 0.00 0.00 55 1016.8
20260904202613 80 246 3.0 3.0 0.00 0.00 0.00 57 1016.9
20260904202109 77 261 0.0 3.0 0.00 0.00 0.00 58 1016.8
20260904201608 79 74 1.0 2.0 0.00 0.00 0.00 59 1017.1
20260904201103 78 180 0.0 4.0 0.00 0.00 0.00 60 1017.0
20260904200602 78 201 0.0 2.0 0.00 0.00 0.00 59 1017.0
20260904200058 78 201 3.0 4.0 0.00 0.00 0.00 59 1017.1
20260904195555 80 221 0.0 4.0 0.00 0.00 0.00 59 1017.0
20260904195050 78 202 0.0 5.0 0.00 0.00 0.00 60 1017.0
20260904194544 79 90 0.0 3.0 0.00 0.00 0.00 57 1017.1
20260904194040 77 74 1.0 2.0 0.00 0.00 0.00 60 1017.3
20260904193540 76 270 0.0 4.0 0.00 0.00 0.00 61 1017.5
20260904193037 77 0 2.0 3.0 0.00 0.00 0.00 61 1017.4
20260904192536 77 106 0.0 2.0 0.00 0.00 0.00 61 1017.2
20260904192032 77 75 0.0 3.0 0.00 0.00 0.00 61 1017.7
20260904191528 77 212 0.0 3.0 0.00 0.00 0.00 61 1017.6
20260904191025 75 192 1.0 3.0 0.00 0.00 0.00 63 1017.6
20260904190520 77 240 1.0 4.0 0.00 0.00 0.00 63 1017.7
20260904190016 74 254 0.0 3.0 0.00 0.00 0.00 64 1017.9
20260904185512 74 262 0.0 3.0 0.00 0.00 0.00 64 1017.8
20260904185007 77 229 2.0 4.0 0.00 0.00 0.00 63 1017.9
20260904184506 78 208 0.0 3.0 0.00 0.00 0.00 62 1018.1
20260904184001 75 239 2.0 4.0 0.00 0.00 0.00 64 1017.9
20260904183456 76 282 2.0 5.0 0.00 0.00 0.00 63 1018.1
20260904182951 74 71 1.0 1.0 0.00 0.00 0.00 65 1018.1
20260904182447 75 238 3.0 4.0 0.00 0.00 0.00 65 1018.2
20260904181947 76 214 4.0 4.0 0.00 0.00 0.00 61 1017.9
20260904181443 76 206 1.0 2.0 0.00 0.00 0.00 61 1017.9
20260904180937 75 342 0.0 1.0 0.00 0.00 0.00 60 1017.8
20260904180432 75 106 0.0 2.0 0.00 0.00 0.00 61 1017.9
20260904175926 75 90 0.0 1.0 0.00 0.00 0.00 62 1018.2
20260904175425 75 257 2.0 2.0 0.00 0.00 0.00 61 1018.2
20260904174919 75 145 0.0 0.0 0.00 0.00 0.00 62 1018.1
20260904174415 75 324 0.0 2.0 0.00 0.00 0.00 63 1018.4
20260904173911 74 270 0.0 1.0 0.00 0.00 0.00 64 1018.2
20260904173406 74 145 1.0 2.0 0.00 0.00 0.00 65 1018.2
20260904172902 74 114 0.0 0.0 0.00 0.00 0.00 66 1018.3
20260904172401 73 263 0.0 0.0 0.00 0.00 0.00 66 1018.1
20260904171856 74 201 0.0 3.0 0.00 0.00 0.00 65 1018.0
20260904171351 71 235 0.0 2.0 0.00 0.00 0.00 67 1018.0
20260904170848 72 107 0.0 2.0 0.00 0.00 0.00 69 1018.2
20260904170343 70 270 0.0 2.0 0.00 0.00 0.00 70 1018.1
20260904165838 72 225 0.0 2.0 0.00 0.00 0.00 68 1017.9
20260904165337 70 270 2.0 2.0 0.00 0.00 0.00 71 1017.8
20260904164832 71 352 0.0 4.0 0.00 0.00 0.00 71 1017.9
20260904164327 71 294 0.0 2.0 0.00 0.00 0.00 70 1017.8
20260904163823 72 228 2.0 3.0 0.00 0.00 0.00 71 1017.7
20260904163318 71 209 0.0 2.0 0.00 0.00 0.00 71 1018.0
20260904162817 69 234 0.0 3.0 0.00 0.00 0.00 73 1017.8
20260904162312 71 188 0.0 0.0 0.00 0.00 0.00 71 1017.6
20260904161808 72 188 0.0 0.0 0.00 0.00 0.00 71 1017.8
20260904161307 72 270 0.0 1.0 0.00 0.00 0.00 72 1017.8
20260904160803 71 90 0.0 1.0 0.00 0.00 0.00 76 1017.9
20260904160258 69 235 0.0 3.0 0.00 0.00 0.00 78 1017.7
20260904155758 69 270 0.0 2.0 0.00 0.00 0.00 78 1017.7
20260904155258 69 221 0.0 0.0 0.00 0.00 0.00 81 1017.6
20260904154756 69 294 0.0 2.0 0.00 0.00 0.00 81 1017.5
20260904154252 69 246 0.0 0.0 0.00 0.00 0.00 83 1017.4
20260904153747 69 270 0.0 2.0 0.00 0.00 0.00 83 1017.6
20260904153243 69 270 0.0 0.0 0.00 0.00 0.00 83 1017.3
20260904152739 68 278 0.0 0.0 0.00 0.00 0.00 84 1017.4
20260904152233 68 345 0.0 1.0 0.00 0.00 0.00 85 1017.5
20260904151728 68 174 0.0 1.0 0.00 0.00 0.00 85 1017.5
20260904151227 68 135 0.0 2.0 0.00 0.00 0.00 87 1017.5
20260904150723 67 145 0.0 1.0 0.00 0.00 0.00 87 1017.5
20260904150218 67 90 0.0 0.0 0.00 0.00 0.00 87 1017.6
20260904145716 67 144 0.0 4.0 0.00 0.00 0.00 88 1017.6
20260904145212 67 90 0.0 0.0 0.00 0.00 0.00 89 1017.4
20260904144708 66 90 0.0 2.0 0.00 0.00 0.00 89 1017.4
20260904144203 66 106 0.0 0.0 0.00 0.00 0.00 90 1017.4
20260904143658 66 106 0.0 2.0 0.00 0.00 0.00 91 1017.4
20260904143155 65 142 0.0 0.0 0.00 0.00 0.00 92 1017.3
20260904142651 65 142 0.0 2.0 0.00 0.00 0.00 93 1017.3
20260904142147 65 157 0.0 0.0 0.00 0.00 0.00 94 1017.2
20260904141642 64 157 0.0 2.0 0.00 0.00 0.00 94 1017.2
20260904141137 64 180 0.0 0.0 0.00 0.00 0.00 94 1017.2
20260904140633 64 270 0.0 0.0 0.00 0.00 0.00 95 1016.9
20260904140128 64 270 0.0 0.0 0.00 0.00 0.00 95 1016.8
20260904135626 63 270 0.0 0.0 0.00 0.00 0.00 95 1017.0
20260904135123 63 270 0.0 0.0 0.00 0.00 0.00 95 1016.9
20260904134618 63 270 0.0 0.0 0.00 0.00 0.00 95 1016.9
20260904134117 63 270 0.0 0.0 0.00 0.00 0.00 95 1016.8
20260904133612 64 270 0.0 0.0 0.00 0.00 0.00 95 1016.8
20260904133108 64 270 0.0 0.0 0.00 0.00 0.00 95 1016.8
20260904132608 64 270 0.0 0.0 0.00 0.00 0.00 95 1016.9
20260904132103 64 270 0.0 0.0 0.00 0.00 0.00 95 1016.9
20260904131557 64 270 0.0 0.0 0.00 0.00 0.00 95 1016.8
20260904131053 64 270 0.0 0.0 0.00 0.00 0.00 95 1016.6
20260904130552 64 270 0.0 0.0 0.00 0.00 0.00 95 1016.9
20260904130047 63 270 0.0 0.0 0.00 0.00 0.00 95 1016.8
20260904125543 64 270 0.0 0.0 0.00 0.00 0.00 95 1016.7
20260904125038 64 270 0.0 0.0 0.00 0.00 0.00 95 1016.7
20260904124533 64 270 0.0 0.0 0.00 0.00 0.00 95 1016.8
20260904124028 64 270 0.0 0.0 0.00 0.00 0.00 95 1016.7
20260904123523 64 270 0.0 0.0 0.00 0.00 0.00 94 1016.4
20260904123018 63 270 0.0 0.0 0.00 0.00 0.00 94 1016.7
20260904122513 63 270 0.0 0.0 0.00 0.00 0.00 94 1016.5
20260904122008 64 270 0.0 0.0 0.00 0.00 0.00 94 1016.5
20260904121503 64 246 0.0 0.0 0.00 0.00 0.00 94 1016.5
20260904120959 64 246 0.0 0.0 0.00 0.00 0.00 94 1016.5
20260904120455 64 180 0.0 0.0 0.00 0.00 0.00 94 1016.4
20260904115949 64 180 0.0 0.0 0.00 0.00 0.00 94 1016.4
20260904115446 64 180 0.0 0.0 0.00 0.00 0.00 94 1016.4
20260904114945 64 180 0.0 0.0 0.00 0.00 0.00 94 1016.3
20260904114440 64 180 0.0 0.0 0.00 0.00 0.00 94 1016.4
20260904113936 64 180 0.0 0.0 0.00 0.00 0.00 94 1016.5
20260904113435 64 180 0.0 0.0 0.00 0.00 0.00 94 1016.5
20260904112933 64 180 0.0 0.0 0.00 0.00 0.00 94 1016.5
20260904085208 67 254 0.0 0.0 0.00 0.00 0.00 91 1016.4
20260904084702 67 254 0.0 0.0 0.00 0.00 0.00 91 1016.4
20260904084153 67 254 0.0 0.0 0.00 0.00 0.00 91 1016.2
20260904083649 67 254 0.0 1.0 0.00 0.00 0.00 91 1016.5
20260904083146 67 270 0.0 0.0 0.00 0.00 0.00 91 1016.6
20260904082640 67 270 0.0 0.0 0.00 0.00 0.00 91 1016.5
20260904082136 67 270 0.0 0.0 0.00 0.00 0.00 90 1016.6
20260904081631 66 270 0.0 0.0 0.00 0.00 0.00 90 1016.6
20260904081126 66 270 0.0 0.0 0.00 0.00 0.00 90 1016.6
20260904080621 67 270 0.0 0.0 0.00 0.00 0.00 90 1016.5
20260904080118 67 270 0.0 0.0 0.00 0.00 0.00 89 1016.3
20260904075613 67 270 0.0 0.0 0.00 0.00 0.00 89 1016.5
20260904075112 67 270 0.0 0.0 0.00 0.00 0.00 90 1016.6
20260904074607 66 270 0.0 0.0 0.00 0.00 0.00 90 1016.5
20260904074102 66 270 0.0 0.0 0.00 0.00 0.00 89 1016.6
20260904073556 66 270 0.0 0.0 0.00 0.00 0.00 89 1016.5
20260904073053 66 270 0.0 0.0 0.00 0.00 0.00 89 1016.7
20260904072548 67 270 0.0 0.0 0.00 0.00 0.00 89 1016.5
20260904072043 67 270 0.0 0.0 0.00 0.00 0.00 89 1016.6
20260904071539 66 270 0.0 0.0 0.00 0.00 0.00 88 1016.3
20260904071034 66 270 0.0 0.0 0.00 0.00 0.00 88 1016.5
20260904070532 67 270 0.0 0.0 0.00 0.00 0.00 87 1016.4
20260904070028 67 270 0.0 0.0 0.00 0.00 0.00 87 1016.3
20260904065522 68 270 0.0 0.0 0.00 0.00 0.00 87 1016.5
20260904065019 68 270 0.0 0.0 0.00 0.00 0.00 88 1016.4
20260904064515 67 270 0.0 0.0 0.00 0.00 0.00 87 1016.6
20260904064009 67 270 0.0 0.0 0.00 0.00 0.00 87 1016.5
20260904063506 68 270 0.0 0.0 0.00 0.00 0.00 87 1016.5
20260904063006 67 270 0.0 0.0 0.00 0.00 0.00 87 1016.4
20260904062502 67 270 0.0 0.0 0.00 0.00 0.00 87 1016.6
20260904061957 68 270 0.0 0.0 0.00 0.00 0.00 87 1016.5
20260904061453 68 270 0.0 0.0 0.00 0.00 0.00 86 1016.5
20260904060949 68 270 0.0 0.0 0.00 0.00 0.00 86 1016.3
20260904060445 68 270 0.0 0.0 0.00 0.00 0.00 86 1016.4
20260904055940 69 270 0.0 0.0 0.00 0.00 0.00 86 1016.4
20260904055436 68 270 0.0 0.0 0.00 0.00 0.00 85 1016.3
20260904054932 69 270 0.0 0.0 0.00 0.00 0.00 85 1016.2
20260904054427 69 270 0.0 0.0 0.00 0.00 0.00 85 1016.2
20260904053923 69 270 0.0 0.0 0.00 0.00 0.00 85 1016.5
20260904053422 69 285 0.0 0.0 0.00 0.00 0.00 85 1016.4
20260904052917 69 246 0.0 0.0 0.00 0.00 0.00 84 1016.4
20260904052414 69 246 0.0 0.0 0.00 0.00 0.00 84 1016.4
20260904051910 69 246 0.0 0.0 0.00 0.00 0.00 84 1016.4
20260904051405 69 337 0.0 1.0 0.00 0.00 0.00 84 1016.5
20260904050901 69 270 0.0 1.0 0.00 0.00 0.00 84 1016.5
20260904050357 70 270 0.0 1.0 0.00 0.00 0.00 83 1016.3
20260904045857 69 261 0.0 0.0 0.00 0.00 0.00 83 1016.6
20260904045352 70 262 0.0 1.0 0.00 0.00 0.00 83 1016.4
20260904044851 70 270 0.0 2.0 0.00 0.00 0.00 83 1016.6
20260904044348 70 263 1.0 2.0 0.00 0.00 0.00 83 1016.3
20260904043844 70 270 0.0 3.0 0.00 0.00 0.00 83 1016.2
20260904043341 70 262 0.0 2.0 0.00 0.00 0.00 83 1016.5
20260904042835 70 254 0.0 2.0 0.00 0.00 0.00 83 1016.3
20260904042331 70 287 2.0 3.0 0.00 0.00 0.00 83 1016.2
20260904041826 71 261 0.0 2.0 0.00 0.00 0.00 83 1016.3
20260904041322 71 258 0.0 2.0 0.00 0.00 0.00 83 1016.2
20260904040818 71 261 0.0 2.0 0.00 0.00 0.00 82 1016.2
20260904040313 71 270 0.0 2.0 0.00 0.00 0.00 81 1016.1
20260904035809 71 270 0.0 1.0 0.00 0.00 0.00 81 1015.9
20260904035306 71 253 0.0 2.0 0.00 0.00 0.00 80 1016.0
20260904034804 71 255 0.0 3.0 0.00 0.00 0.00 79 1016.0
20260904034300 71 245 2.0 2.0 0.00 0.00 0.00 78 1015.9
20260904033755 71 257 0.0 1.0 0.00 0.00 0.00 76 1015.8
20260904033252 71 270 2.0 2.0 0.00 0.00 0.00 76 1015.7
20260904032748 72 270 1.0 3.0 0.00 0.00 0.00 74 1015.9
20260904032246 72 270 0.0 0.0 0.00 0.00 0.00 72 1015.7
20260904031741 72 251 2.0 3.0 0.00 0.00 0.00 72 1015.7
20260904031236 72 283 0.0 2.0 0.00 0.00 0.00 70 1015.5
20260904030726 72 254 1.0 3.0 0.00 0.00 0.00 70 1015.6
20260904030222 72 255 1.0 3.0 0.00 0.00 0.00 69 1015.6
20260904025719 72 264 0.0 2.0 0.00 0.00 0.00 69 1015.6
20260904025213 73 252 2.0 2.0 0.00 0.00 0.00 69 1015.6
20260904024709 73 264 1.0 3.0 0.00 0.00 0.00 68 1015.4
20260904024204 73 270 0.0 3.0 0.00 0.00 0.00 68 1015.4
20260904023700 73 292 0.0 4.0 0.00 0.00 0.00 68 1015.5
20260904023156 73 285 3.0 3.0 0.00 0.00 0.00 67 1015.3
20260904022655 73 270 0.0 2.0 0.00 0.00 0.00 67 1015.4
20260904022152 74 312 2.0 3.0 0.00 0.00 0.00 67 1015.4
20260904021648 74 332 2.0 3.0 0.00 0.00 0.00 67 1015.1
20260904021142 74 262 2.0 4.0 0.00 0.00 0.00 68 1015.5
20260904020638 75 242 3.0 3.0 0.00 0.00 0.00 69 1015.3
20260904020127 75 259 3.0 3.0 0.00 0.00 0.00 68 1015.5
20260904015626 76 257 2.0 3.0 0.00 0.00 0.00 68 1015.2
20260904015125 77 270 0.0 1.0 0.00 0.00 0.00 67 1015.4